STARLINK-34322, 64702

Orbit data source: Space-Track

STARLINK-34322, 64702 is a payload satellite owned by SpaceX/Seattle (US) in LEO that was launched on Sat, 28 Jun 2025 UTC via an FALCON 9 launch vehicle from the Air Force Western Test Range (AFWTR). Payload-class satellites include a variety of spacecraft equipped with specific instruments for various scientific and technological missions. These include communications satellites like Starlink; space stations such as the ISS; scientific satellites like the Hubble; Earth observation satellites from companies like Planet Labs, Umbra, and HawkEye 360; GPS; miniature CubeSats for education and research; and military/defense satellites.

Loading next visibility...
Identifier
64702, 2025-142G
Orbit
LEO
Country
Flag of USUS
Related business
Manufacturer
SpaceX/Seattle
Mission
Operational Commercial Communications
Bus & Motor
STARLINK V2MO, Unknown motor
Mass
575 kg wet, ~530 kg dry
Launch date (UTC)
2025-06-28 (2 months ago)
Launch vehicle
FALCON 9
Launch site
Air Force Western Test Range (AFWTR)
Object type
Payload
Rocket body
Debris
Shape & HBR
Box + 1 Pan, 14.5 m
Radar Cross Section
41.120 m², Large (>1 m²)

Expand to show TLE details & history
Last TLE update: 1 day ago

TLE from 1 day ago
0 STARLINK-34322
1 64702U 25142G   25241.97156669  .00054625  00000-0  12414-2 0  9992
2 64702  70.0011  79.8214 0003178 270.5157  89.5660 15.42726438 10879
Epoch: 2025-08-29T23:19Z
TLE epoch observation values (Epoch: 2025-08-29T23:19:03.362Z)
Latitude
-0.00006°
Longitude
111.64481°
Altitude
440.523 km
Speed
7.648 km/s
True Right ascension
05h 19m 17s
True Declination
0° 00' 00"
Sunlit
Object was in daylight at epoch
Visualization orbit readout
Latitude
Unknown
Longitude
Unknown
Altitude
Unknown
Speed
Unknown
Apparent Right ascension
Unknown
Apparent Declination
Unknown
Sunlit
N/A
Visualization observer readout
Local Sidereal Time
16:46:22
Azimuth
Unknown
Elevation
Unknown
Doppler factor
Unknown
Orbital elements
Apogee altitude
438.14 km
Perigee altitude
433.809 km
Semi-major axis
6,814.111 km
Eccentricity
0.00032
Inclination
70.0011°
RAAN
79.8214°
Arg. of periapsis
270.5157°
True anomaly
89.60242°
Mean anomaly
89.566°
Eccentric anomaly
89.58421°
Mean motion
3.8586 °/min
Orbital period
93.3 mins
BSTAR
0.0012414
Loading maneuver chart data...
Computing Atmospheric mass density...
Loading historical data...
Loading historical data...
Loading historical data...
Loading historical data...
Loading historical data...
Loading historical data...
Loading historical data...

Documentation

Showing up to 5 results
|